[keps] orb12334.2l.amsat

Ray Hoad ray.hoad at mypbmail.com
Thu Nov 29 18:27:28 PST 2012


SB KEPS @ AMSAT  $ORB12334.N
2Line Orbital Elements 12334.AMSAT

HR AMSAT ORBITAL ELEMENTS FOR AMATEUR SATELLITES IN NASA FORMAT
FROM WA5QGD FORT WORTH,TX November 29, 2012
BID: ORB12334.N

DECODE 2-LINE ELSETS WITH THE FOLLOWING KEY:
1 AAAAAU 00  0  0 BBBBB.BBBBBBBB  .CCCCCCCC  00000-0  00000-0 0  DDDZ
2 AAAAA EEE.EEEE FFF.FFFF GGGGGGG HHH.HHHH III.IIII JJ.JJJJJJJJKKKKKZ
KEY: A-CATALOGNUM B-EPOCHTIME C-DECAY D-ELSETNUM E-INCLINATION F-RAAN
G-ECCENTRICITY H-ARGPERIGEE I-MNANOM J-MNMOTION K-ORBITNUM Z-CHECKSUM

TO ALL RADIO AMATEURS BT

AO-07
1 07530U 74089B   12333.54450481 -.00000027  00000-0  10000-3 0 05424
2 07530 101.4147 324.4785 0011807 321.4987 038.5244 12.53593095740648
FO-29
1 24278U 96046B   12333.79699546  .00000008  00000-0  47073-4 0 09864
2 24278 098.5848 052.9133 0350333 323.3689 034.3951 13.52992832804215
SO-33
1 25509U 98061B   12333.60026749  .00000717  00000-0  12797-3 0 03786
2 25509 031.4299 123.1785 0352262 202.1721 156.3305 14.28919926736182
RS-22
1 27939U 03042A   12334.04125054  .00000617  00000-0  12530-3 0  9474
2 27939 097.7988 166.3322 0014358 100.8590 259.4229 14.64243347490001
VO-52
1 28650U 05017B   12333.46635930  .00001597  00000-0  19969-3 0  2747
2 28650 097.5829 356.2924 0025215 219.3432 140.5931 14.83414108409328
HO-68
1 36122U 09072B   12334.07530531 -.00000044  00000-0  00000 0 0   527
2 36122 100.3401 029.9331 0007898 092.1111 268.0902 13.16300191142086
UO-11
1 14781U 84021B   12333.68623832  .00000466  00000-0  67386-4 0 00010
2 14781 097.9324 031.5906 0008473 211.3195 148.7513 14.80677276523260
AO-16
1 20439U 90005D   12333.48795325  .00000257  00000-0  11134-3 0  6159
2 20439 098.4477 272.4029 0011686 036.1871 324.0099 14.32117100193519
LO-19
1 20442U 90005G   12334.11491525  .00000169  00000-0  78080-4 0  5479
2 20442 098.4164 275.4556 0012368 026.2616 333.9195 14.32331718193798
AO-27
1 22825U 93061C   12333.87454688  .00000197  00000-0  94030-4 0  2530
2 22825 098.5933 274.2688 0008605 150.7894 209.3763 14.29514352    15
IO-26
1 22826U 93061D   12334.05361008  .00000184  00000-0  88607-4 0    82
2 22826 098.5870 274.7748 0009226 144.3706 215.8091 14.29793479   160
GO-32
1 25397U 98043D   12333.61783082  .00000043  00000-0  37243-4 0 09357
2 25397 098.3849 304.4162 0001770 132.2064 227.9267 14.23309542747413
NO-44
1 26931U 01043C   12333.35184287 -.00000139  00000-0 -21846-4 0  1968
2 26931 067.0528 057.2145 0004927 258.0238 102.0298 14.29863349582719
SO-50
1 27607U 02058C   12333.99930891  .00000682  00000-0  12417-3 0  9261
2 27607 064.5547 153.4586 0070255 214.8478 144.8010 14.72658426534230
CO-55
1 27844U 03031E   12333.53847922  .00000383  00000-0  19642-3 0 05180
2 27844 098.7028 339.5359 0010366 105.8997 254.3329 14.21123191488231
CO-57
1 27848U 03031J   12333.50107844  .00000301  00000-0  15915-3 0 04686
2 27848 098.7103 338.9092 0010369 111.8494 248.3784 14.20861482488169
AO-51
1 28375U 04025K   12333.50757608  .00000354  00000-0  11878-3 0 04261
2 28375 098.1709 291.3479 0082688 263.8838 095.2954 14.41039713442430
CP3
1 31129U 07012N   12333.50702818  .00001376  00000-0  32006-3 0  3242
2 31129 097.8866 331.6604 0100363 332.6846 026.9085 14.53364123297842
CO-65
1 32785U 08021C   12334.19370513  .00001457  00000-0  18361-3 0  4813
2 32785 097.7807 031.1888 0013315 240.5697 119.4198 14.83429428248226
PRISM
1 33493U 09002B   12334.01528711  .00004404  00000-0  52241-3 0  3006
2 33493 098.1914 118.8445 0019284 121.6398 238.6613 14.84911911208201
SOHLA-1
1 33496U 09002E   12333.89266267  .00000477  00000-0  87661-4 0 08993
2 33496 098.1188 084.6894 0005575 235.2580 124.8101 14.70131487206447
SO-67
1 35870U 09049F   12334.06162733  .00005808  00000-0  23312-3 0  5559
2 35870 097.2154 003.9862 0001682 005.0080 078.9115 15.25343328177733
TISAT-1
1 36799U 10035E   12334.05656258  .00002642  00000-0  33432-3 0  5722
2 36799 098.0509 051.5426 0014672 003.2747 356.8508 14.82616187128913
STUDSAT
1 36801U 10035G   12333.26787034  .00009094  00000-0  10401-2 0  5318
2 36801 098.0596 052.3338 0011792 349.5580 010.5360 14.86186954128878
FO-69
1 37227U 0        12324.39082420  .00000949  00000-0  14124-3 0 03419
2 37227 071.9700 329.4329 0015671 026.5333 333.6607 14.77273675059013
FO-70
1 37380U 0        12324.35497821  .00000912  00000-0  13684-3 0 03454
2 37380 071.9737 330.2673 0016487 023.0914 337.0959 14.77019282058893
ALMASAT-1
1 38078U 12006B   12334.08416158  .00025302  00000-0  68308-3 0  7764
2 38078 069.4771 302.0576 0730165 041.1824 324.1948 14.15848555 40839
XATCOBEO
1 38082U 12006F   12334.06433067  .00069125  00000-0  15754-2 0  7313
2 38082 069.4822 293.7849 0668578 036.5830 327.8339 14.32298863 41052
NOAA-10
1 16969U 86073A   12333.51839442  .00000249  00000-0  11868-3 0  1504
2 16969 098.5666 359.5268 0013087 112.0317 248.2258 14.27599339363314
NOAA-11
1 19531U 88089A   12333.26731613  .00000157  00000-0  10341-3 0  1451
2 19531 098.7257 054.9121 0011911 113.3249 246.9163 14.14994024247717
NOAA-12
1 21263U 91032A   12333.64236664  .00000103  00000-0  62380-4 0  6251
2 21263 098.7167 354.4449 0014753 082.7852 277.5004 14.25533878119988
MET-3/5
1 21655U 91056A   12334.15117235 -.00000015  00000-0 -70019-4 0  5599
2 21655 082.5574 035.6375 0012200 268.4411 091.5314 13.17042099 23602
MET-2/21
1 22782U 93055A   12333.37534072  .00000092  00000-0  69191-4 0  5937
2 22782 082.5477 262.2309 0024013 054.2574 306.0811 13.83695068971877
OKEAN-4
1 23317U 94066A   12333.55990633  .00001013  00000-0  11795-3 0   670
2 23317 082.5411 237.4915 0021261 163.7248 196.4658 14.84138090979184
NOAA-14
1 23455U 94089A   12333.65068384  .00000034  00000-0  41305-4 0  1076
2 23455 098.8196 055.0091 0008833 204.7575 155.3175 14.13883728924034
NOAA-15
1 25338U 98030A   12333.48738664  .00000275  00000-0  13586-3 0  5030
2 25338 098.7057 318.9884 0010651 356.2245 003.8845 14.25153260756252
RESURS
1 25394U 98043A   12333.50626441  .00000088  00000-0  55667-4 0  2438
2 25394 098.3366 313.2374 0002223 101.1065 259.0362 14.24311227747794
FENGYUN1
1 25730U 99025A   12333.87591939  .00001817  00000-0  10551-2 0 07499
2 25730 098.8575 290.1288 0020462 253.6775 106.2133 14.09892050697815
OKEAN-0
1 25860U 99039A   12333.91304801  .00000795  00000-0  12729-3 0 08061
2 25860 097.9596 293.4163 0002000 072.7350 287.4077 14.74411352718847
NOAA-16
1 26536U 00055A   12333.34361569  .00000125  00000-0  91770-4 0  9852
2 26536 099.0736 017.8315 0010343 345.8393 014.2513 14.12811296628219
NOAA-17
1 27453U 02032A   12333.45744420  .00000254  00000-0  12700-3 0  9264
2 27453 098.3247 352.0960 0012356 038.7017 321.5049 14.24515560542147
NOAA-18
1 28654U 05018A   12333.49787552  .00000170  00000-0  11836-3 0  4094
2 28654 099.0695 293.1449 0015046 054.1754 306.0804 14.11739014387740
NOAA-19
1 33591U 09005A   12333.47178437  .00000231  00000-0  15188-3 0  5941
2 33591 098.8810 271.3470 0013321 278.2573 081.7081 14.11425194196187
HUBBLE
1 20580U 90037B   12333.89321936  .00001715  00000-0  11184-3 0 01306
2 20580 028.4690 145.2839 0002854 016.1162 343.9526 15.03090085039537
ISS
1 25544U 98067A   12333.60875234  .00013656  00000-0  23040-3 0  7325
2 25544 051.6499 024.7441 0015766 340.1845 155.9317 15.51837211803554
CO-58
1 28895U 05043F   12333.61850385  .00000731  00000-0  15834-3 0 03395
2 28895 097.8892 192.4617 0017779 357.3451 002.7668 14.60872063377661
FALCON
1 30776U 07006E   12334.22338918  .00005512  00000-0  34374-3 0  4942
2 30776 035.4354 347.8356 0001630 321.4610 038.5981 15.09013153315182
MAST
1 31126U 07012K   12333.94137635  .00000878  00000-0  20551-3 0 06214
2 31126 097.8742 335.4238 0093069 317.8122 041.5945 14.54366314298218
CAPE1
1 31130U 07012P   12333.49258281  .00001158  00000-0  27178-3 0 06292
2 31130 097.8865 331.3208 0100779 333.4667 026.1284 14.53210738297633
COMPASS
1 32787U 08021E   12334.16126301  .00002011  00000-0  24320-3 0  4769
2 32787 097.7819 031.7288 0013977 239.1753 120.8012 14.84730157248284
AAUSAT2
1 32788U 08021F   12334.15949821  .00002189  00000-0  26172-3 0  4672
2 32788 097.7814 032.2082 0013439 235.2851 124.7048 14.85117310248314
DO-64
1 32789U 08021G   12334.15131076  .00004624  00000-0  51975-3 0  4875
2 32789 097.7944 034.9163 0013387 233.5144 126.4756 14.87132237248385
CO-66
1 32791U 08021J   12333.81754372  .00002088  00000-0  25659-3 0 04647
2 32791 097.7804 030.9873 0014317 238.8333 121.1394 14.84014332248156
RS-30
1 32953U 08025A   12334.04873358  .00000010  00000-0  00000 0 0  3655
2 32953 082.5015 192.6249 0018617 311.7776 048.1715 12.43029943205047
PHARMSAT
1 35002U 09028B   12226.86484473  .07728342  73476-5  57159-3 0   789
2 35002 040.4341 050.6671 0012079 300.9773 059.0492 16.39309245183554
METEOR-M
1 35865U 09049A   12334.16628705  .00000008  00000-0  23394-4 0    58
2 35865 098.6336 025.2102 0002003 315.2148 044.8863 14.21875814166046
RS-38
1 35869U 09049E   12334.09187715  .00000081  00000-0  56039-4 0  9743
2 35869 098.6284 025.1025 0004120 304.5240 055.5539 14.22102367166058
JUGNU
1 37839U 11058B   12333.46576898  .00000620  00000-0  19019-3 0 02804
2 37839 019.9569 082.9708 0018472 232.1240 127.7494 14.12108741058490
SRMSAT
1 37841U 11058D   12333.46120265  .00000264  00000-0  00000-0 0 02812
2 37841 019.9692 091.1107 0012148 195.1539 164.8582 14.10184001058411
RAX-2
1 37853U 11061D   12333.38712479  .00007951  00000-0  61602-3 0  3543
2 37853 101.7049 088.4452 0242215 242.1792 115.4664 14.81576906 58696
AUBIESAT
1 37854U 11061E   12333.90055540  .00008122  00000-0  61727-3 0 03539
2 37854 101.7063 089.6818 0243115 239.6479 118.0476 14.82092498058774
HRBE
1 37855U 11061F   12333.93411545  .00007275  00000-0  55590-3 0 03588
2 37855 101.7069 089.6178 0243885 239.7938 117.8907 14.81870206058771
RS-39
1 38051U 11062C   12334.10083333  .00011757  00000-0  44002-3 0  9322
2 38051 051.6361 092.2583 0012175 264.9735 092.4386 15.27664053 47149
/EX




More information about the Keps mailing list